Kankakee, IL

3:23 AM CDT on October 21, 2019 (GMT -0500)
Greater Kankakee

Weather History for KIKK - August, 2019

Change the Weather History Date:

Wednesday, August 7, 2019

  Actual Average Record
Temperature  
Mean Temperature 73 °F -  
Max Temperature 86 °F 81 °F 96 °F (2007)
Min Temperature 61 °F 60 °F 33 °F (2002)
Cooling Degree Days 8    
Growing Degree Days 23 (Base 50)    
Moisture  
Dew Point 62 °F    
Average Humidity 69    
Maximum Humidity 98    
Minimum Humidity 37    
Precipitation  
Precipitation 0.00 in - - ()
Sea Level Pressure  
Sea Level Pressure 29.86 in    
Wind  
Wind Speed 2 mph (West)    
Max Wind Speed 12 mph    
Max Gust Speed 18 mph    
Visibility 10 miles    
Events      
Averages and records for this station are not official NWS values.
T = Trace of Precipitation, MM = Missing Value Source: NWS Daily Summary

Daily Weather History Graph

Daily Weather History Graph

Search for Another Location

Airport or City:

Astronomy

Aug. 07, 2019 Rise Set
Actual Time 5:52 AM CDT 8:00 PM CDT
Civil Twilight 5:22 AM CDT 8:31 PM CDT
Nautical Twilight 4:45 AM CDT 9:08 PM CDT
Astronomical Twilight 4:04 AM CDT 9:48 PM CDT
Moon 1:28 PM CDT (8/7) No Moon Set
Length of Visible Light 15h 08m
Length of Day
14h 07m
Waxing Crescent, 50% of the Moon is Illuminated
Aug 7
Waxing Crescent
Aug 7
First Quarter
Aug 15
Full
Aug 23
Last Quarter
Aug 30
New

Hourly Weather History & Observations

Time (CDT) Temp. Heat Index Dew Point Humidity Pressure Visibility Wind Dir Wind Speed Gust Speed Precip Events Conditions
12:15 AM 67.1 °F - 65.3 °F 94% 29.87 in 10.0 mi Calm Calm - N/A   Clear
12:35 AM 66.6 °F - 64.8 °F 94% 29.87 in 10.0 mi Calm Calm - N/A   Clear
12:55 AM 65.8 °F - 64.4 °F 95% 29.87 in 10.0 mi Calm Calm - N/A   Clear
1:15 AM 66.0 °F - 64.6 °F 95% 29.87 in 10.0 mi Calm Calm - N/A   Clear
1:35 AM 64.6 °F - 63.1 °F 95% 29.87 in 10.0 mi Calm Calm - N/A   Clear
1:55 AM 64.4 °F - 63.5 °F 97% 29.85 in 10.0 mi Calm Calm - N/A   Clear
2:15 AM 64.2 °F - 63.5 °F 98% 29.86 in 10.0 mi West 3.5 mph - N/A   Clear
2:35 AM 63.5 °F - 62.6 °F 97% 29.86 in 7.0 mi Calm Calm - N/A   Clear
2:55 AM 64.2 °F - 63.3 °F 97% 29.86 in 7.0 mi Calm Calm - N/A   Clear
3:15 AM 64.6 °F - 63.9 °F 98% 29.86 in 7.0 mi Calm Calm - N/A   Clear
3:55 AM 64.8 °F - 63.9 °F 97% 29.87 in 10.0 mi Calm Calm - N/A   Scattered Clouds
4:15 AM 63.5 °F - 62.1 °F 95% 29.87 in 10.0 mi Calm Calm - N/A   Clear
4:35 AM 63.7 °F - 63.0 °F 97% 29.87 in 7.0 mi Calm Calm - N/A   Clear
4:55 AM 62.6 °F - 61.5 °F 96% 29.86 in 10.0 mi Calm Calm - N/A   Clear
5:15 AM 62.6 °F - 61.9 °F 97% 29.86 in 7.0 mi Calm Calm - N/A   Clear
5:35 AM 61.9 °F - 61.2 °F 97% 29.86 in 7.0 mi Calm Calm - N/A   Clear
5:55 AM 61.7 °F - 60.8 °F 97% 29.87 in 5.0 mi Calm Calm - N/A   Clear
6:15 AM 62.1 °F - 61.3 °F 97% 29.87 in 4.0 mi Calm Calm - N/A   Clear
6:35 AM 63.5 °F - 62.8 °F 97% 29.87 in 5.0 mi Calm Calm - N/A   Clear
6:55 AM 64.0 °F - 63.3 °F 97% 29.88 in 5.0 mi Calm Calm - N/A   Scattered Clouds
7:15 AM 65.7 °F - 63.7 °F 93% 29.88 in 10.0 mi West 4.6 mph - N/A   Scattered Clouds
7:35 AM 67.5 °F - 64.6 °F 90% 29.88 in 10.0 mi West 3.5 mph - N/A   Clear
7:55 AM 69.6 °F - 65.7 °F 87% 29.89 in 10.0 mi West 3.5 mph - N/A   Clear
8:15 AM 71.1 °F - 66.2 °F 85% 29.88 in 10.0 mi NW 3.5 mph - N/A   Clear
8:35 AM 72.3 °F - 65.8 °F 80% 29.88 in 10.0 mi Calm Calm - N/A   Clear
8:55 AM 73.9 °F - 65.1 °F 74% 29.88 in 10.0 mi Calm Calm - N/A   Clear
9:15 AM 75.6 °F - 65.5 °F 71% 29.88 in 10.0 mi Calm Calm - N/A   Clear
9:35 AM 77.7 °F - 65.3 °F 65% 29.88 in 10.0 mi Calm Calm - N/A   Clear
9:55 AM 78.8 °F - 63.1 °F 59% 29.89 in 10.0 mi West 4.6 mph - N/A   Clear
10:15 AM 79.2 °F - 62.8 °F 57% 29.89 in 10.0 mi Calm Calm - N/A   Clear
10:35 AM 80.6 °F 82.3 °F 64.8 °F 58% 29.89 in 10.0 mi SSW 3.5 mph - N/A   Clear
10:55 AM 81.0 °F 82.5 °F 63.7 °F 56% 29.89 in 10.0 mi Calm Calm - N/A   Scattered Clouds
11:15 AM 81.7 °F 82.9 °F 63.1 °F 53% 29.89 in 10.0 mi Calm Calm - N/A   Scattered Clouds
11:35 AM 81.9 °F 82.3 °F 60.6 °F 48% 29.89 in 10.0 mi South 3.5 mph - N/A   Scattered Clouds
11:55 AM 81.5 °F 82.7 °F 62.8 °F 53% 29.89 in 10.0 mi SW 3.5 mph - N/A   Mostly Cloudy
12:15 PM 81.3 °F 82.2 °F 61.3 °F 51% 29.88 in 10.0 mi Calm Calm - N/A   Scattered Clouds
12:35 PM 81.9 °F 82.6 °F 61.3 °F 50% 29.88 in 10.0 mi Calm Calm - N/A   Scattered Clouds
12:55 PM 82.8 °F 83.4 °F 62.1 °F 49% 29.87 in 10.0 mi West 8.1 mph - N/A   Scattered Clouds
1:15 PM 84.4 °F 84.6 °F 61.0 °F 45% 29.87 in 10.0 mi WSW 8.1 mph - N/A   Mostly Cloudy
1:35 PM 84.4 °F 84.4 °F 60.4 °F 44% 29.87 in 10.0 mi WNW 9.2 mph 16.1 mph N/A   Scattered Clouds
1:55 PM 84.7 °F 84.6 °F 59.9 °F 43% 29.87 in 10.0 mi WSW 8.1 mph - N/A   Scattered Clouds
2:15 PM 85.6 °F 85.0 °F 59.0 °F 40% 29.87 in 10.0 mi West 8.1 mph - N/A   Scattered Clouds
2:35 PM 85.5 °F 84.3 °F 56.5 °F 37% 29.86 in 10.0 mi WSW 11.5 mph 18.4 mph N/A   Scattered Clouds
2:55 PM 85.3 °F 84.8 °F 58.8 °F 41% 29.86 in 10.0 mi West 8.1 mph - N/A   Clear
3:15 PM 85.1 °F 84.8 °F 59.5 °F 42% 29.86 in 10.0 mi West 9.2 mph - N/A   Clear
3:35 PM 85.5 °F 84.5 °F 57.2 °F 38% 29.85 in 10.0 mi WNW 9.2 mph - N/A   Clear
3:55 PM 85.3 °F 84.4 °F 57.7 °F 39% 29.85 in 10.0 mi West 10.4 mph - N/A   Clear
4:15 PM 85.5 °F 84.6 °F 58.1 °F 39% 29.84 in 10.0 mi WNW 8.1 mph - N/A   Clear
4:35 PM 85.6 °F 84.8 °F 57.9 °F 39% 29.84 in 10.0 mi WNW 8.1 mph - N/A   Clear
4:55 PM 85.3 °F 85.2 °F 60.3 °F 43% 29.84 in 10.0 mi West 6.9 mph - N/A   Clear
5:15 PM 84.7 °F 85.2 °F 61.9 °F 46% 29.84 in 10.0 mi West 8.1 mph 18.4 mph N/A   Clear
5:35 PM 84.4 °F 85.0 °F 62.1 °F 47% 29.83 in 10.0 mi West 9.2 mph - N/A   Clear
5:55 PM 82.2 °F 83.2 °F 62.2 °F 51% 29.83 in 10.0 mi West 4.6 mph - N/A   Scattered Clouds
6:15 PM 83.7 °F 84.5 °F 62.4 °F 49% 29.82 in 10.0 mi West 6.9 mph - N/A   Mostly Cloudy
6:35 PM 83.1 °F 83.7 °F 61.7 °F 48% 29.82 in 10.0 mi West 9.2 mph - N/A   Scattered Clouds
6:55 PM 82.4 °F 83.4 °F 62.4 °F 51% 29.82 in 10.0 mi WNW 8.1 mph - N/A   Scattered Clouds
7:15 PM 80.8 °F 82.0 °F 63.0 °F 54% 29.82 in 10.0 mi WNW 4.6 mph - N/A   Clear
7:35 PM 79.2 °F - 62.6 °F 57% 29.82 in 10.0 mi West 5.8 mph - N/A   Clear
7:55 PM 77.4 °F - 62.4 °F 60% 29.82 in 10.0 mi West 6.9 mph - N/A   Clear
8:15 PM 77.0 °F - 62.4 °F 61% 29.82 in 10.0 mi WSW 4.6 mph - N/A   Clear
8:35 PM 74.5 °F - 63.1 °F 68% 29.82 in 10.0 mi WSW 3.5 mph - N/A   Clear
8:55 PM 73.8 °F - 62.8 °F 68% 29.83 in 10.0 mi Calm Calm - N/A   Clear
9:15 PM 71.8 °F - 63.1 °F 74% 29.84 in 10.0 mi SW 3.5 mph - N/A   Clear
9:35 PM 73.2 °F - 63.3 °F 71% 29.84 in 10.0 mi WSW 3.5 mph - N/A   Clear
9:55 PM 73.2 °F - 62.8 °F 70% 29.84 in 10.0 mi SW 3.5 mph - N/A   Clear
10:15 PM 72.5 °F - 63.1 °F 72% 29.83 in 10.0 mi SW 5.8 mph - N/A   Clear
10:35 PM 72.5 °F - 62.8 °F 71% 29.84 in 10.0 mi SW 5.8 mph - N/A   Clear
10:55 PM 71.8 °F - 62.6 °F 73% 29.84 in 10.0 mi SW 4.6 mph - N/A   Clear
11:15 PM 71.6 °F - 62.2 °F 72% 29.84 in 10.0 mi Calm Calm - N/A   Clear
11:35 PM 66.4 °F - 62.6 °F 88% 29.85 in 10.0 mi Calm Calm - N/A   Clear
11:55 PM 67.5 °F - 62.8 °F 85% 29.86 in 10.0 mi Calm Calm - N/A   Clear